#timestamp,LO_Frequency,Hit,StdDev 
1623416415.1,286046997.1,N
1623416416.0,286046997.1,N
1623416435.8,286046997.6,N
1623416455.7,286046997.8,N
1623416475.5,286046998.0,N
1623416495.3,286046997.3,N
1623416515.2,286046997.5,N
1623416535.0,286046997.6,N
1623416535.9,286046997.6,N
1623416555.8,286046996.8,N
1623416575.6,286046997.8,N
1623416595.4,286046996.7,Y
1623416615.3,286046998.6,P
1623416635.1,286046999.4,N
1623416655.9,286046999.0,N
1623416675.7,286046998.3,Y
1623416695.5,286047000.0,P
1623416715.4,286047002.6,P
1623416735.2,286047002.3,N
1623416755.1,286047002.5,N
1623416756.0,286047002.5,N
1623416775.8,286047002.0,N
1623416795.6,286047001.5,N
1623416815.5,286047001.9,N
1623416835.3,286047002.4,N
1623416855.1,286047002.1,N
1623416875.9,286047002.1,N
1623416895.7,286047002.4,N
1623416915.6,286047000.2,N
1623416935.4,286047001.6,N
1623416955.2,286047001.9,N
1623416975.1,286047001.6,N
1623416976.0,286047001.6,N
1623416995.8,286047004.4,Y
1623417015.7,286047000.1,P
1623417035.5,286046999.9,N
1623417055.3,286047002.3,N
1623417075.2,286046999.7,N
1623417095.0,286047002.3,N
1623417095.9,286047002.3,N
1623417115.8,286047002.5,N
1623417135.6,286047002.4,N
1623417155.4,286047002.0,N
1623417175.3,286047002.4,N
1623417195.1,286047002.5,N
1623417215.8,286047002.4,N
1623417235.7,286047002.1,N
1623417255.5,286047002.0,N
1623417275.4,286047002.0,N
1623417295.2,286047001.7,N
1623417315.0,286047001.3,N
1623417315.9,286047001.3,N
1623417335.8,286047004.3,Y
1623417355.6,286047000.3,P
1623417375.5,286047000.0,N
1623417395.3,286047000.3,N
1623417415.1,286047000.3,N
1623417435.9,286047000.7,N
1623417455.7,286047000.4,N
1623417475.5,286046999.8,N
1623417495.4,286047001.2,N
1623417515.2,286047000.5,N
1623417535.1,286047001.0,N
1623417536.0,286047001.0,N
1623417555.8,286047000.1,N
1623417575.6,286047000.2,N
1623417595.5,286047000.9,N
1623417615.3,286047000.9,N
1623417635.1,286047000.5,N
1623417655.9,286047002.6,Y
1623417675.7,286047001.9,P
1623417695.6,286047002.2,P
1623417715.4,286047001.9,N
1623417735.2,286047002.2,Y
1623417755.1,286046998.6,P
1623417756.0,286046998.6,N
1623417775.8,286046998.2,N
1623417795.7,286047000.5,N
1623417815.5,286047000.8,N
1623417835.3,286046998.2,N
1623417855.2,286046998.1,N
1623417875.9,286047000.2,N
1623417895.8,286046998.7,N
1623417915.6,286046998.3,N
1623417935.4,286046999.3,N
1623417955.3,286046999.3,N
1623417975.1,286046998.4,N
1623417995.8,286046999.4,N
1623418015.7,286046999.5,N
1623418035.5,286046999.4,N
1623418055.4,286046998.4,N
1623418075.2,286046998.4,N
1623418095.0,286046998.9,N
1623418095.9,286046998.9,N
1623418115.8,286046998.8,N
1623418135.6,286046999.1,N
1623418155.4,286046999.4,N
1623418175.3,286046996.6,Y
1623418195.1,286046997.0,P
1623418215.9,286046998.9,N
1623418235.7,286046999.3,N
1623418255.5,286046998.7,N
1623418275.4,286046998.2,N
1623418295.2,286046998.9,N
1623418315.1,286046999.0,N
1623418316.0,286046999.0,N
1623418335.8,286046999.4,N
1623418355.6,286046998.4,N
1623418375.5,286047000.8,N
1623418395.3,286046998.6,N
1623418415.1,286046998.2,N
1623418435.9,286046998.2,N
1623418455.7,286047000.6,N
1623418475.6,286046998.1,N
1623418495.4,286047000.3,N
1623418515.2,286047000.2,N
1623418535.1,286047000.4,N
1623418536.0,286047000.4,N
1623418555.8,286047002.8,N
1623418575.7,286047000.6,N
1623418595.5,286047001.0,N
1623418615.3,286047001.0,N
1623418635.2,286047000.1,N
1623418655.0,286047000.5,N
1623418655.9,286047000.5,N
1623418675.7,286047000.3,N
1623418695.6,286047002.2,N
1623418715.4,286047001.8,N
1623418735.3,286047003.8,N
1623418755.1,286047001.3,N
1623418775.8,286047004.4,Y
1623418795.7,286047002.3,P
1623418815.5,286047004.2,P
1623418835.4,286047002.8,N
1623418855.2,286047000.2,N
1623418875.0,286047000.4,N
1623418876.0,286047000.4,N
1623418895.8,286047002.7,N
1623418915.6,286047000.2,N
1623418935.5,286046998.4,N
1623418955.3,286047001.2,N
1623418975.1,286047000.5,N
1623418995.9,286047002.4,N
1623419015.7,286047004.4,N
1623419035.6,286047002.1,N
1623419055.4,286046999.7,N
1623419075.3,286047002.3,N
1623419095.1,286047000.3,N
1623419096.0,286047000.3,N
1623419115.8,286047000.9,N
1623419135.7,286047000.4,N
1623419155.5,286047000.5,N
1623419175.3,286047000.7,N
1623419195.2,286047000.7,N
1623419245.0,286046999.1,E
1623419255.9,286046999.1,N
1623419275.7,286046998.1,P
1623419295.5,286047000.7,N
1623419315.4,286047000.4,N
1623419335.2,286047000.4,N
1623419355.1,286046999.9,N
1623419356.0,286046999.9,N
1623419375.8,286047000.1,N
1623419395.6,286047004.0,Y
1623419415.5,286047003.2,P
1623419435.3,286047004.0,N
1623419455.1,286047003.9,N
1623419475.9,286047002.4,N
1623419495.7,286047003.9,N
1623419515.6,286047003.7,N
1623419535.4,286047001.6,N
1623419555.2,286047003.6,N
1623419575.1,286047003.5,N
1623419576.0,286047003.5,N
1623419595.8,286047004.3,Y
1623419615.7,286046999.4,P
1623419635.5,286046998.4,N
1623419655.3,286047000.9,N
1623419675.2,286047002.4,N
1623419695.0,286047000.1,N
1623419695.9,286047000.1,N
1623419715.7,286047000.4,N
1623419735.6,286046998.2,N
1623419755.4,286046999.5,N
1623419775.3,286046999.2,N
1623419795.1,286046999.6,N
1623419796.0,286046999.6,N
1623419815.8,286046999.6,N
1623419835.7,286046996.9,N
1623419855.5,286046998.8,N
1623419875.3,286046998.4,N
1623419895.2,286047001.2,N
1623419915.0,286046999.0,N
1623419915.9,286046999.0,N
1623419935.8,286047001.2,N
1623419955.6,286047000.7,N
1623419975.4,286047000.4,N
1623419995.3,286047001.2,N
